Location: Golden Pond Observatory
(36.7773°N, 88.0631°W)
Time: 16:11:58
(UTC-05:00)

N. Korean satellite - Visible Passes

Search period start: 22 March 2019 00:00
Search period end: 01 April 2019 00:00
Orbit: 456 x 510 km, 97.2° (Epoch: 22 March)

Date Brightness Start Highest point End Pass type
(mag) Time Alt. Az. Time Alt. Az. Time Alt. Az.
22 Mar 10.1 06:01:44 10° ENE 06:03:22 13° E 06:04:59 10° ESE visible
25 Mar 9.6 06:19:32 10° NE 06:22:25 22° E 06:25:18 10° SSE visible
26 Mar 10.4 05:56:31 10° ENE 05:57:27 11° E 05:58:23 10° ESE visible
29 Mar 9.7 06:13:48 10° NE 06:16:29 19° E 06:19:10 10° SE visible
